Regional Weather Roundup
Issued by NWS Sioux Falls, SD

Home | Current Version | Previous Version | Graphics & Text | Print | Product List | Glossary Off
Versions: 1 2 3 4 5 6 7 8 9 10 11 12 13 14 15 16 17 18 19 20 21 22 23 24 25 26 27 28 29 30 31 32 33 34 35 36 37 38 39 40 41 42 43 44 45 46 47 48 49 50

000
ASUS43 KFSD 041910
RWRFSD

WEATHER ROUNDUP FOR SE SOUTH DAKOTA/SW MINNESOTA/NW IOWA
NATIONAL WEATHER SERVICE SIOUX FALLS SD
200 PM CDT MON MAY 04 2015

NOTE: "FAIR" INDICATES FEW OR NO CLOUDS BELOW 12,000 FEET WITH NO
SIGNIFICANT WEATHER AND OR OBSTRUCTIONS TO VISIBILITY.


SDZ038>040-050-052>070-042000-
SOUTHEAST SOUTH DAKOTA

CITY           SKY/WX    TMP DP  RH WIND       PRES   REMARKS
BROOKINGS      SUNNY     66  27  22 NE10G17   30.18F
CHAMBERLAIN    PTSUNNY   69  20  15 NE10      30.17S
HURON          PTSUNNY   72  25  17 NE12      30.16F
MADISON        FAIR      68  23  18 E14G21    30.17F
MITCHELL       MOSUNNY   72  24  16 E8G22     30.16S
SIOUX FALLS    PTSUNNY   71  30  21 E10       30.15F
WINNER         MOCLDY    68  19  15 NE18      30.18F
YANKTON        PTSUNNY   70  34  26 NE16G22   30.13F
$$

MNZ071-072-080-081-089-090-097-098-042000-
SOUTHWEST MINNESOTA

CITY           SKY/WX    TMP DP  RH WIND       PRES   REMARKS
FAIRMONT       PTSUNNY   70  28  21 NE14G22   30.16S
JACKSON        CLOUDY    70  21  16 E16G25    30.17S
LUVERNE        PTSUNNY   70  27  19 NE12      30.16S
MARSHALL       SUNNY     70  27  19 NE13      30.17F
MONTEVIDEO     SUNNY     73  25  16 E9        30.20S
REDWOOD FALLS  SUNNY     71  28  20 NE10G20   30.17F
TRACY          MOSUNNY   71  26  18 NE9G16    30.17F
WORTHINGTON    CLOUDY    68  28  22 NE17G23   30.17S
$$

IAZ001>003-012>014-020>022-031-032-NEZ013-014-SDZ071-042000-
NORTHWEST IOWA

CITY           SKY/WX    TMP DP  RH WIND       PRES   REMARKS
CHEROKEE       CLOUDY    68  36  30 E15G23    30.14S
DENISON        CLOUDY    68  45  42 E16G24    30.09R
ESTHERVILLE    CLOUDY    69  34  27 NE17G24   30.16R
LE MARS        CLOUDY    72  36  26 NE17G23   30.14S
ORANGE CITY    CLOUDY    70  34  26 E12G22    30.15R
SHELDON        CLOUDY    70  37  30 E15G24    30.14S
SIOUX CITY     LGT RAIN  65  44  46 E16G22    30.14R
SPENCER        CLOUDY    69  34  27 NE17G26   30.15S
STORM LAKE     CLOUDY    64  41  42 E24G31    30.14S
$$

ABBREVIATIONS USED IN REMARKS
   TC - TEMPERATURE IN CELSIUS
  WCI - WIND CHILL INDEX
   HX - HEAT INDEX
  VSB - VISIBILITY




USA.gov is the U.S. government's official web portal to all federal, state and local government web resources and services.